Header for Extended Forecast Station List Page

Search by: ID | Name | Date | Parm | Value | Avg | % Avg
Sort by: ID | Name | Date | Parm | Value | Avg | % Avg

Enter search or view all records.

Click on id for station plot
#IDNameDateParmValueAvg% Avg
0LEOI1KOOTENAI-AT LEONIA02-20-2024DISCHARGE (KAF)3168335894
1FCFM8NF FLATHEAD-NEAR COLUMBIA FALLS02-20-2024DISCHARGE (KAF)887117675
2WGCM8MF FLATHEAD-NEAR WEST GLACIER02-20-2024DISCHARGE (KAF)920112782
3CFMM8FLATHEAD-AT COLUMBIA FALLS02-20-2024DISCHARGE (KAF)2601328579
4DLGM8CLARK FORK-AT DEER LODGE02-20-2024DISCHARGE (KAF)687590
5DRMM8CLARK FORK-NR DRUMMOND02-20-2024DISCHARGE (KAF)18721488
6RCCM8ROCK CREEK-NEAR CLINTON02-20-2024DISCHARGE (KAF)14719376
7BONM8BLACKFOOT-NEAR BONNER02-20-2024DISCHARGE (KAF)39461664
8ABOM8CLARK FORK-ABOVE MISSOULA02-20-2024DISCHARGE (KAF)757107870
9BITM8BITTERROOT-NEAR MISSOULA02-20-2024DISCHARGE (KAF)72190580
10BELM8CLARK FORK-BELOW MISSOULA02-20-2024DISCHARGE (KAF)1478202473
11STRM8ST. REGIS-NEAR ST. REGIS02-20-2024DISCHARGE (KAF)20523787
12SRGM8CLARK FORK-AT ST REGIS02-20-2024DISCHARGE (KAF)1968269073
13PRTI1PRIEST-NEAR PRIEST RIVER02-20-2024DISCHARGE (KAF)816717114
14SPOW1SPOKANE-AT SPOKANE02-20-2024DISCHARGE (KAF)2196265183
15SATI1ST MARIES-NEAR SANTA02-20-2024DISCHARGE (KAF)145137106
16CIBW1COLUMBIA-AT INTL BOUNDARY02-20-2024DISCHARGE (KAF)168382406370
17LAUW1KETTLE-AT LAURIER02-20-2024DISCHARGE (KAF)15391525101
18TONW1OKANOGAN-NEAR TONASKET02-20-2024DISCHARGE (KAF)844121669
19PATW1METHOW-NEAR PATEROS02-20-2024DISCHARGE (KAF)53766780
20ARDW1ENTIAT-NEAR ARDENVOIR02-20-2024DISCHARGE (KAF)13314294
21PESW1WENATCHEE-AT PESHASTIN02-20-2024DISCHARGE (KAF)966107390
22EASW1YAKIMA-AT EASTON02-20-2024DISCHARGE (KAF)939994
23TNAW1TEANAWAY-BELOW FORKS02-20-2024DISCHARGE (KAF)146134109
24UMTW1YAKIMA-AT UMTANUM02-20-2024DISCHARGE (KAF)60163495
25CLFW1NACHES-NEAR CLIFFDEL02-20-2024DISCHARGE (KAF)334329102
26NACW1NACHES-NEAR NACHES02-20-2024DISCHARGE (KAF)486487100
27PARW1YAKIMA-NEAR PARKER02-20-2024DISCHARGE (KAF)58372081
28KIOW1YAKIMA-AT KIONA02-20-2024DISCHARGE (KAF)905105586
29CHEI1FALL RIVER-NEAR CHESTER02-20-2024DISCHARGE (KAF)323295109
30ANTI1HENRYS FORK-AT ST. ANTHONY02-20-2024DISCHARGE (KAF)610586104
31TEAI1TETON-NEAR ST. ANTHONY02-20-2024DISCHARGE (KAF)312269116
32REXI1HENRYS FORK-AT REXBURG02-20-2024DISCHARGE (KAF)745682109
33JKSW4SNAKE-NEAR JACKSON02-20-2024DISCHARGE (KAF)917102789
34ALPW4SNAKE-NEAR ALPINE02-20-2024DISCHARGE (KAF)1170132588
35HEII1SNAKE-NEAR HEISE02-20-2024DISCHARGE (KAF)20261791113
36SIFI1SNAKE-AB EAGLE ROCK NR IDAHO FALLS02-20-2024DISCHARGE (KAF)20651581131
37SHYI1SNAKE-NEAR SHELLEY02-20-2024DISCHARGE (KAF)19401487130
38SNAI1SNAKE-AT BLACKFOOT02-20-2024DISCHARGE (KAF)16431075153
39BFTI1SNAKE-NEAR BLACKFOOT02-20-2024DISCHARGE (KAF)16101069151
40PIHI1PORTNEUF-AT POCATELLO02-20-2024DISCHARGE (KAF)13373181
41MILI1SNAKE-AT MILNER02-20-2024DISCHARGE (KAF)M55M
42HOTI1BRUNEAU-NEAR HOT SPRINGS02-20-2024DISCHARGE (KAF)234145161
43SWAI1SNAKE-BELOW SWAN FALLS02-20-2024DISCHARGE (KAF)19221893102
44HWRI1BIG LOST-AT HOWELL RANCH NEAR CHILLY02-20-2024DISCHARGE (KAF)11591127
45HALI1BIG WOOD-AT HAILEY02-20-2024DISCHARGE (KAF)167153109
46BIGI1BOISE-AT GLENWOOD BRIDGE02-20-2024DISCHARGE (KAF)466208224
47PARI1BOISE-NEAR PARMA02-20-2024DISCHARGE (KAF)495255194
48EMMI1PAYETTE-NEAR EMMETT02-20-2024DISCHARGE (KAF)900107784
49WSRI1WEISER-NEAR WEISER02-20-2024DISCHARGE (KAF)439417105
50WEII1SNAKE-AT WEISER02-20-2024DISCHARGE (KAF)42964001107
51WHBI1SALMON-AT WHITEBIRD02-20-2024DISCHARGE (KAF)3638445482
52TRYO3GRANDE RONDE-TROY02-20-2024DISCHARGE (KAF)13791286107
53ANAW1SNAKE-NEAR ANATONE02-20-2024DISCHARGE (KAF)98541148786
54ORFI1CLEARWATER-AT OROFINO02-20-2024DISCHARGE (KAF)3555397489
55SPDI1CLEARWATER-AT SPALDING02-20-2024DISCHARGE (KAF)4716583481
56TCHW1WALLA WALLA-NEAR TOUCHET02-20-2024DISCHARGE (KAF)17320485
57GIBO3UMATILLA-NEAR GIBBON02-20-2024DISCHARGE (KAF)9188104
58PDTO3UMATILLA-AT PENDLETON02-20-2024DISCHARGE (KAF)205189108
59MYKO3MCKAY CREEK-NEAR PILOT ROCK02-20-2024DISCHARGE (KAF)343888
60UMAO3UMATILLA-NEAR UMATILLA02-20-2024DISCHARGE (KAF)170168101
61MONO3NF JOHN DAY-AT MONUMENT02-20-2024DISCHARGE (KAF)735604122
62SERO3JOHN DAY-AT SERVICE CK02-20-2024DISCHARGE (KAF)1117860130
63MODO3DESCHUTES-AT MOODY NR BIGGS02-20-2024DISCHARGE (KAF)15381421108
64PITW1KLICKITAT-NEAR PITT02-20-2024DISCHARGE (KAF)602504119
65HODO3HOOD-NEAR TUCKER BRIDGE02-20-2024DISCHARGE (KAF)320255126
66UNDW1WHITE SALMON-NEAR UNDERWOOD02-20-2024DISCHARGE (KAF)363339107
67LYDM8KOOTENAI-LIBBY DAM02-20-2024INFLOW (KAF)2910366379
68HHWM8SF FLATHEAD-HUNGRY HORSE DAM02-20-2024INFLOW (KAF)1312151786
69KERM8FLATHEAD-SELI’Š KSANKA QLISPE’ DAM02-20-2024INFLOW (KAF)3166409177
70NOXM8CLARK FORK-NOXON RAPIDS DAM02-20-2024INFLOW (KAF)4708671370
71CABI1CLARK FORK-CABINET GORGE DAM02-20-2024INFLOW (KAF)5212752069
72ALFW1PEND OREILLE-ALBENI FALLS DAM02-20-2024INFLOW (KAF)6773880577
73COEI1COEUR D ALENE-COEUR D ALENE LAKE02-20-2024INFLOW (KAF)2297262987
74LLKW1SPOKANE-AT LONGLAKE02-20-2024INFLOW (KAF)2496297984
75GCDW1COLUMBIA-GRAND COULEE DAM02-20-2024INFLOW (KAF)210012770376
76CHJW1COLUMBIA-CHIEF JOSEPH DAM02-20-2024INFLOW (KAF)199852768672
77WELW1COLUMBIA-WELLS DAM02-20-2024INFLOW (KAF)213562975872
78CHDW1CHELAN-LAKE CHELAN DAM02-20-2024INFLOW (KAF)56173377
79RRHW1COLUMBIA-ROCKY REACH DAM02-20-2024INFLOW (KAF)218333048072
80WANW1COLUMBIA-WANAPUM DAM02-20-2024INFLOW (KAF)227833179872
81PRWW1COLUMBIA-PRIEST RAPIDS DAM02-20-2024INFLOW (KAF)227893186372
82KEDW1YAKIMA-KEECHELUS LAKE02-20-2024INFLOW (KAF)110106104
83KADW1KACHESS-KACHESS DAM02-20-2024INFLOW (KAF)969998
84CLUW1CLE ELUM-CLE ELUM LAKE02-20-2024INFLOW (KAF)321312103
85BUDW1BUMPING-BUMPING LAKE DAM02-20-2024INFLOW (KAF)10294109
86RILW1TIETON-RIMROCK LAKE NEAR RIMROCK02-20-2024INFLOW (KAF)15015597
87IPDI1HENRYS FORK-ISLAND PARK DAM02-20-2024INFLOW (KAF)15616396
88JLKW4SNAKE-JACKSON LAKE AT DAM02-20-2024INFLOW (KAF)563563100
89PLDI1SF SNAKE-PALISADES DAM02-20-2024INFLOW (KAF)1960198199
90RIDI1WILLOW CREEK-RIRIE DAM02-20-2024INFLOW (KAF)7939201
91AFRI1SNAKE-AMERICAN FALLS RESERVOIR02-20-2024INFLOW (KAF)22871714133
92MACI1BIG LOST-MACKAY RESERVOIR NEAR MACKAY02-20-2024INFLOW (KAF)10066151
93MAGI1BIG WOOD-MAGIC DAM02-20-2024INFLOW (KAF)188154123
94LWRI1LITTLE WOOD-LITTLE WOOD DAM02-20-2024INFLOW (KAF)5951115
95OWYO3OWYHEE-OWYHEE DAM02-20-2024INFLOW (KAF)559268209
96ARAI1SF BOISE-ANDERSON RANCH DAM02-20-2024INFLOW (KAF)439373118
97LUCI1BOISE-LUCKY PEAK DAM02-20-2024INFLOW (KAF)1093898122
98WRMO3MALHEUR-WARM SPRINGS DAM02-20-2024INFLOW (KAF)12779161
99BERO3MALHEUR-AGENCY VALLEY DAM02-20-2024INFLOW (KAF)7852150
100BULO3BULLY CREEK-BULLY CREEK DAM02-20-2024INFLOW (KAF)344767
101CSDI1NF PAYETTE-CASCADE DAM02-20-2024INFLOW (KAF)36643784
102DEDI1DEADWOOD-NEAR LOWMAN02-20-2024INFLOW (KAF)8910188
103BRNI1SNAKE-BROWNLEE DAM02-20-2024INFLOW (KAF)48724479109
104DWRI1NF CLEARWATER-DWORSHAK DAM02-20-2024INFLOW (KAF)2094240987
105LGDW1SNAKE-LOWER GRANITE DAM02-20-2024INFLOW (KAF)145661782882
106LGSW1SNAKE-LITTLE GOOSE DAM02-20-2024INFLOW (KAF)145661786282
107LMNW1SNAKE-LOWER MONUMENTAL DAM02-20-2024INFLOW (KAF)146881800982
108IHDW1SNAKE-ICE HARBOR DAM02-20-2024INFLOW (KAF)146891801482
109MCDW1COLUMBIA-MCNARY DAM02-20-2024INFLOW (KAF)384335105475
110JDAO3COLUMBIA-JOHN DAY DAM02-20-2024INFLOW (KAF)410285307677
111TDAO3COLUMBIA-THE DALLES DAM02-20-2024INFLOW (KAF)415145350078
112BONO3COLUMBIA-BONNEVILLE DAM02-20-2024INFLOW (KAF)428075562477
113HOPI1PEND OREILLE-LAKE PEND OREILLE NR HOPE02-20-2024LAKE ELEVATION (FT)MMM
114BFEI1KOOTENAI-AT BONNERS FERRY02-20-2024STAGE (FT)MMM
115SJMI1ST JOE-AT ST MARIES02-20-2024STAGE (FT)MMM